Location: Laterina
(43.5167°N, 11.7167°E)
Time: 16:23:45
(UTC+00:00)

Cosmos 1536 Rocket - Pass Details

Date: 24 September 2020
Orbit: 606 x 632 km, 82.5° (Epoch: 26 October)

Event Time Altitude Azimuth Distance (km) Brightness Sun altitude
Rises 18:38:46 0° 347° (NNW) 2,924 7.4 -17.4°
Reaches altitude 10° 18:41:02 10° 344° (NNW) 2,015 6.6 -17.8°
Maximum altitude 18:45:25 58° 266° (W) 738 4.2 -18.6°
Drops below altitude 10° 18:49:47 10° 187° (S) 2,006 6.1 -19.3°
Sets 18:52:02 0° 184° (S) 2,910 6.9 -19.7°
